Regional Weather Roundup
Issued by NWS

Home | Current Version | Previous Version | Text Only | Print | Product List | Glossary On
Versions: 1 2 3 4 5 6 7 8 9 10 11 12 13 14 15 16 17 18 19 20 21 22 23 24 25 26 27 28 29 30 31 32 33 34 35 36 37 38 39 40 41 42 43 44 45 46 47 48 49 50
000
ASUS46 KSEW 191510
RWRWA

WASHINGTON REGIONAL WEATHER ROUNDUP
NATIONAL WEATHER SERVICE SEATTLE WA
700 AM PST FRI DEC 19 2014

NOTE:"FAIR" INDICATES FEW OR NO CLOUDS BELOW 12,000 FEET WITH NO
SIGNIFICANT WEATHER AND/OR OBSTRUCTIONS TO VISIBILITY.

WAZ505-507>509-191600-
SEATTLE, TACOMA, EVERETT, AND VICINITY

CITY           SKY/WX    TMP DP  RH WIND       PRES   REMARKS
EVERETT        RAIN      44  40  85 S21G26    29.84R FOG
BOEING FIELD   CLOUDY    50  42  74 SE7       29.86R
RENTON         CLOUDY    46  44  93 E3        29.86R
SEATAC AIRPORT CLOUDY    46  41  82 S8        29.85S
JBLM-MCCHORD   CLOUDY    42  42  99 S7        29.87R
PUYALLUP       NOT AVBL
JBLM-FT LEWIS  CLOUDY    42  42  99 SE7       29.86R
TACOMA NARROWS CLOUDY    46  41  82 S9        29.86R
$$

WAZ001-503-506-510-514-515-191600-
NORTH INTERIOR

CITY           SKY/WX    TMP DP  RH WIND       PRES   REMARKS
BELLINGHAM     LGT RAIN  48  43  82 S8G20     29.80R
FRIDAY HARBOR  LGT RAIN  45  43  93 W5        29.82R
EASTSOUND      CLOUDY    48  46  93 S5        29.79R
PORT ANGELES   CLOUDY    41  38  89 MISG      29.80S
NAS WHIDBEY    CLOUDY    49  41  74 SE13      29.81R
BURLINGTON     PTCLDY    46  45  93 S9        29.83R
$$

WAZ020-022-039-040-504-511-512-191600-
SOUTHWEST INTERIOR

CITY           SKY/WX    TMP DP  RH WIND       PRES   REMARKS
SHELTON        CLOUDY    44  42  93 E3        29.84R
OLYMPIA        LGT RAIN  46  42  86 S13       29.87R
CHEHALIS       DRIZZLE   46  45  93 S6        29.89R
KELSO          CLOUDY    46  43  87 SE9       29.93R
VANCOUVER      CLOUDY    46  42  86 SE6       29.93R
SCAPPOOSE, OR  CLOUDY    47  43  86 S9        29.91S
PORTLAND, OR   CLOUDY    46  44  93 SE7       29.94R
$$

WAZ021-516-517-191600-
WASHINGTON COAST

CITY           SKY/WX    TMP DP  RH WIND       PRES   REMARKS
FORKS          MOCLDY    44  43  96 SE3       29.79R
HOQUIAM        CLOUDY    47  45  93 SE7       29.84R
ASTORIA, OR    CLOUDY    47  43  86 SE6       29.87R
$$

WAZ019-023-024-040-518-519-191600-
CASCADE MOUNTAINS AND COLUMBIA GORGE

CITY           SKY/WX    TMP DP  RH WIND       PRES   REMARKS
STAMPEDE PASS  NOT AVBL
TROUTDALE, OR  LGT RAIN  45  42  89 E3        29.94R
THE DALLES, OR CLOUDY    37  36  96 NE6       29.94S FOG
$$

WAZ026-027-041>044-520-521-191600-
EAST SLOPES

CITY           SKY/WX    TMP DP  RH WIND       PRES   REMARKS
OMAK           CLOUDY    33  32  96 SW3       29.85S FOG
WENATCHEE      CLOUDY    36  34  92 SW5       29.86S
ELLENSBURG     CLOUDY    37  34  89 N3        29.85S FOG
YAKIMA         CLOUDY    38  36  92 W3        29.89R FOG
$$

WAZ028-034-035-191600-
COLUMBIA BASIN

CITY           SKY/WX    TMP DP  RH WIND       PRES   REMARKS
EPHRATA        CLOUDY    37  36  96 SW6       29.85R FOG
MOSES LAKE     FOG       37  37 100 SE3       29.86S VSB 1/2
PASCO          LGT RAIN  39  39 100 SE3       29.91S FOG
HERMISTON, OR  LGT RAIN  39  37  92 S5        29.92S FOG
$$

WAZ036>038-191600-
NORTHEAST WASHINGTON

CITY           SKY/WX    TMP DP  RH WIND       PRES   REMARKS
SPOKANE GEIGER LGT RAIN  40  38  93 SE10      29.85F
SPOKANE FELTS  CLOUDY    42  39  89 NE5       29.88F
FAIRCHILD AFB  CLOUDY    39  39 100 S8        29.84F
COEURDALENE,ID CLOUDY    37  36  93 NE3       29.87F
DEER PARK      LGT RAIN  37  37 100 NE6       29.87F FOG
$$

WAZ029>033-191600-
SOUTHEAST WASHINGTON

CITY           SKY/WX    TMP DP  RH WIND       PRES   REMARKS
PULLMAN        LGT RAIN  41  38  89 SE10      29.91S FOG
LEWISTON, ID   LGT RAIN  44  39  82 SE7       29.92S
WALLA WALLA    LGT RAIN  44  40  85 W10       29.90R FOG
PENDLETON, OR  LGT RAIN  37  36  96 NW9       29.90R VSB 3/4
$$



USA.gov is the U.S. government's official web portal to all federal, state and local government web resources and services.